This is the latest recevied weather packets stored in our database for station/object KE5YIM-13. If no packets are shown the sender has not sent any weather packets the latest 10 day(s).
| Time | Temp. | Humidity | Pressure | Rain* | Wind** | Luminosity | Snow |
|---|---|---|---|---|---|---|---|
| 1777594220 | 11.11° C | 97% | 1009.1 hPa | 0 mm | - | 0 W/m² | - |
| 1777593916 | 11.11° C | 97% | 1009.1 hPa | 0 mm | - | 0 W/m² | - |
| 1777593613 | 11.67° C | 96% | 1008.9 hPa | 0 mm | - | 0 W/m² | - |
| 1777593309 | 11.67° C | 96% | 1009 hPa | 0 mm | - | 1 W/m² | - |
| 1777593003 | 11.67° C | 96% | 1008.9 hPa | 0 mm | - | 2 W/m² | - |
| 1777592697 | 11.67° C | 97% | 1008.9 hPa | 0 mm | - | 3 W/m² | - |
| 1777592393 | 11.67° C | 97% | 1009 hPa | 0 mm | - | 4 W/m² | - |
| 1777592088 | 11.67° C | 97% | 1008.9 hPa | 0 mm | - | 6 W/m² | - |
| 1777591786 | 11.67° C | 97% | 1008.9 hPa | 0 mm | - | 9 W/m² | - |
| 1777591481 | 11.67° C | 97% | 1008.7 hPa | 0 mm | - | 13 W/m² | - |
| 1777591178 | 12.22° C | 97% | 1008.9 hPa | 0 mm | - | 14 W/m² | - |
| 1777590872 | 12.22° C | 97% | 1008.7 hPa | 0 mm | - | 13 W/m² | - |
| 1777590570 | 12.22° C | 96% | 1008.6 hPa | 0 mm | - | 15 W/m² | - |
| 1777590266 | 12.22° C | 96% | 1008.5 hPa | 0 mm | - | 18 W/m² | - |
| 1777589963 | 12.22° C | 96% | 1008.5 hPa | 0 mm | - | 23 W/m² | - |
| 1777589660 | 12.22° C | 96% | 1008.4 hPa | 0 mm | - | 26 W/m² | - |
| 1777589356 | 12.22° C | 96% | 1008.2 hPa | 0 mm | - | 34 W/m² | - |
| 1777589054 | 12.22° C | 96% | 1008.3 hPa | 0 mm | - | 33 W/m² | - |
| 1777588750 | 12.22° C | 96% | 1008.4 hPa | 1.27 mm | - | 49 W/m² | - |
| 1777588446 | 12.22° C | 96% | 1008.4 hPa | 1.27 mm | - | 75 W/m² | - |
| 1777588140 | 12.22° C | 96% | 1008.4 hPa | 0 mm | - | 57 W/m² | - |
| 1777587837 | 12.22° C | 95% | 1008.3 hPa | 0 mm | - | 36 W/m² | - |
| 1777587537 | 12.22° C | 95% | 1008.3 hPa | 0 mm | - | 43 W/m² | - |
| 1777587233 | 12.22° C | 95% | 1008.3 hPa | 1.78 mm | - | 49 W/m² | - |
| 1777586928 | 12.22° C | 94% | 1008.3 hPa | 6.1 mm | - | 43 W/m² | - |
* Rain latest hour (hover to see other rain measurements)
** Current wind speed in m/s (hover to see current wind gust speed)